Temp
-7 -7 -7 -7 -7 -7 -8 -8 -8 -7 -8 -7 -7 -8 -7 -7 -7 -7 -7 -8 -8 -8 -8 -7 -7 -7 -7 -7 -7 -7 -7 -7 -7 -7 -7 -7 -7 -7 -7 -7 -7 -7 -7 -7 -7 -7 -7 -6 -7
-7 -7 -7 -7 -7 -7 -8 -8 -8 -7 -7 -7 -7 -9 -8 -7 -8 -9 -8 -8 -8 -8 -8 -7 -7 -8 -8 -8 -9 -8 -8 -8 -7 -7 -7 -7 -7 -7 -8 -8 -8 -8 -8 -8 -7 -7 -7 -7 -7
-7 -7 -7 -7 -7 -7 -8 -8 -8 -8 -8 -7 -7 -7 -8 -8 -8 -8 -9 -8 -8 -7 -8 -7 -7 -7 -8 -9 -9 -9 -9 -8 -8 -8 -8 -7 -7 -8 -8 -8 -8 -8 -8 -8 -8 -8 -8 -8 -9
-7 -7 -7 -6 -7 -8 -8 -8 -8 -8 -7 -7 -7 -8 -8 -8 -8 -8 -8 -8 -7 -7 -7 -7 -7 -7 -8 -9 -8 -9 -9 -9 -9 -8 -8 -8 -8 -8 -8 -8 -8 -9 -8 -9 -8 -9 -9 -9 -9
-8 -7 -6 -6 -7 -8 -8 -8 -8 -8 -8 -8 -8 -8 -8 -8 -8 -8 -8 -7 -6 -7 -7 -7 -8 -8 -9 -9 -8 -9 -9 -9 -10 -9 -9 -9 -9 -9 -9 -9 -9 -9 -9 -9 -9 -9 -9 -10 -10
-8 -7 -7 -6 -8 -9 -8 -9 -8 -8 -8 -8 -8 -7 -7 -8 -8 -7 -7 -8 -8 -7 -7 -7 -8 -9 -9 -8 -9 -9 -9 -10 -10 -10 -9 -10 -10 -9 -9 -9 -10 -9 -9 -9 -9 -10 -10 -10 -11
-8 -8 -7 -7 -8 -8 -8 -9 -9 -8 -8 -8 -7 -8 -7 -8 -8 -8 -8 -7 -7 -6 -7 -8 -8 -8 -9 -8 -8 -9 -10 -10 -10 -10 -10 -10 -10 -10 -10 -10 -10 -10 -10 -9 -10 -10 -11 -11 -11
-9 -8 -8 -8 -8 -8 -9 -9 -9 -8 -8 -8 -8 -8 -8 -8 -8 -8 -8 -7 -7 -7 -8 -9 -9 -9 -9 -9 -9 -9 -10 -10 -10 -11 -10 -11 -11 -11 -10 -10 -11 -10 -10 -10 -10 -11 -11 -11 -11
-9 -9 -8 -8 -9 -9 -10 -9 -9 -9 -9 -8 -8 -8 -8 -8 -9 -9 -8 -8 -8 -9 -9 -9 -9 -10 -10 -10 -10 -10 -11 -11 -11 -11 -11 -11 -11 -11 -11 -11 -11 -11 -11 -11 -11 -12 -12 -11 -12
-9 -9 -8 -9 -9 -10 -11 -10 -9 -9 -9 -8 -8 -8 -9 -9 -8 -9 -9 -9 -9 -10 -10 -10 -10 -10 -10 -10 -10 -10 -11 -11 -12 -12 -11 -11 -11 -11 -11 -11 -11 -11 -11 -11 -12 -12 -12 -12 -12
-10 -9 -9 -9 -10 -10 -10 -10 -10 -10 -9 -10 -9 -9 -8 -9 -9 -10 -9 -9 -9 -10 -10 -11 -11 -11 -11 -11 -10 -10 -12 -12 -12 -12 -12 -11 -11 -11 -12 -11 -12 -12 -11 -12 -12 -13 -13 -13 -12
-11 -10 -10 -10 -10 -11 -11 -10 -10 -9 -9 -10 -9 -10 -9 -9 -9 -9 -9 -10 -10 -10 -11 -11 -11 -11 -11 -11 -11 -11 -12 -13 -12 -12 -12 -12 -11 -11 -13 -12 -12 -12 -12 -12 -13 -13 -13 -13 -12
-11 -10 -11 -11 -11 -11 -11 -10 -10 -9 -9 -10 -10 -9 -9 -9 -10 -10 -10 -10 -10 -11 -11 -11 -11 -11 -11 -11 -11 -11 -12 -12 -12 -12 -12 -12 -11 -12 -12 -13 -13 -13 -13 -12 -13 -13 -13 -13 -13
-11 -11 -12 -11 -12 -11 -11 -10 -11 -8 -9 -9 -9 -9 -9 -9 -10 -10 -10 -10 -11 -11 -10 -11 -11 -10 -11 -11 -11 -11 -11 -12 -12 -12 -13 -13 -12 -12 -13 -13 -13 -13 -13 -13 -13 -13 -13 -14 -13
-12 -12 -12 -11 -11 -12 -11 -11 -8 -9 -10 -9 -9 -9 -9 -10 -10 -10 -10 -10 -10 -9 -9 -10 -10 -9 -10 -10 -11 -11 -11 -12 -12 -13 -13 -13 -12 -12 -13 -13 -13 -13 -13 -13 -13 -13 -13 -13 -13
-11 -12 -12 -11 -12 -12 -12 -9 -9 -10 -10 -10 -10 -10 -11 -10 -10 -10 -10 -10 -9 -9 -9 -10 -10 -10 -10 -11 -11 -11 -12 -12 -12 -13 -13 -12 -12 -13 -13 -13 -13 -13 -13 -13 -13 -13 -13 -13 -14
-11 -11 -11 -11 -11 -12 -12 -9 -10 -10 -11 -10 -11 -10 -10 -9 -9 -9 -10 -10 -9 -9 -10 -9 -9 -10 -10 -11 -11 -11 -12 -12 -12 -13 -13 -13 -13 -13 -13 -13 -13 -13 -13 -13 -13 -13 -13 -13 -14
-11 -11 -11 -11 -11 -12 -12 -9 -11 -11 -11 -10 -10 -10 -9 -9 -8 -9 -9 -9 -9 -10 -9 -9 -9 -10 -11 -11 -11 -11 -11 -12 -13 -13 -13 -13 -13 -14 -14 -14 -13 -13 -13 -13 -13 -13 -13 -13 -13
-12 -11 -11 -11 -11 -12 -12 -11 -11 -10 -10 -9 -9 -9 -9 -8 -8 -8 -9 -9 -9 -9 -9 -10 -10 -10 -10 -11 -11 -11 -11 -12 -12 -13 -13 -13 -13 -13 -13 -13 -13 -13 -13 -12 -13 -13 -13 -13 -13
-12 -12 -12 -12 -12 -11 -11 -11 -10 -10 -9 -9 -9 -9 -9 -8 -8 -9 -9 -9 -9 -9 -10 -10 -10 -10 -11 -10 -10 -11 -11 -11 -12 -13 -13 -13 -13 -13 -13 -13 -13 -12 -12 -12 -13 -12 -13 -13 -13
-12 -12 -12 -12 -12 -12 -11 -10 -10 -9 -9 -9 -9 -9 -8 -8 -8 -9 -9 -9 -9 -10 -10 -10 -10 -10 -10 -10 -10 -11 -11 -12 -11 -12 -13 -13 -13 -13 -13 -13 -12 -12 -12 -12 -12 -12 -13 -13 -13
-13 -12 -12 -12 -12 -11 -12 -10 -9 -9 -9 -9 -9 -9 -9 -9 -9 -9 -9 -9 -9 -10 -10 -9 -9 -10 -10 -10 -11 -11 -12 -11 -12 -12 -13 -13 -13 -13 -13 -12 -12 -12 -12 -12 -12 -12 -12 -13 -13
-13 -13 -12 -12 -12 -12 -11 -11 -8 -10 -9 -8 -9 -9 -9 -10 -10 -9 -10 -10 -10 -9 -9 -9 -9 -9 -10 -10 -11 -11 -12 -12 -12 -13 -13 -13 -13 -12 -12 -12 -12 -12 -12 -12 -12 -13 -13 -13 -13
-16 -15 -14 -13 -13 -12 -11 -11 -9 -9 -9 -9 -9 -10 -10 -10 -10 -10 -10 -9 -9 -9 -9 -9 -9 -9 -10 -10 -11 -11 -12 -12 -13 -12 -12 -12 -12 -12 -12 -12 -12 -12 -12 -12 -12 -12 -13 -13 -13
-18 -16 -15 -15 -14 -11 -11 -11 -9 -9 -9 -10 -10 -10 -10 -10 -10 -10 -9 -9 -9 -10 -9 -9 -9 -10 -10 -10 -11 -12 -12 -12 -12 -12 -12 -12 -12 -12 -12 -12 -12 -12 -12 -12 -12 -13 -13 -13 -13
-19 -17 -15 -15 -13 -11 -11 -10 -9 -9 -9 -10 -10 -10 -10 -10 -9 -9 -9 -10 -9 -9 -9 -9 -10 -10 -10 -11 -11 -12 -12 -12 -12 -12 -11 -11 -12 -12 -11 -12 -12 -12 -12 -12 -12 -12 -13 -13 -13
-20 -19 -17 -16 -13 -12 -11 -10 -9 -9 -10 -10 -12 -11 -10 -9 -9 -10 -10 -9 -9 -9 -10 -10 -10 -10 -11 -11 -11 -11 -12 -11 -11 -11 -12 -12 -11 -11 -12 -12 -12 -12 -12 -12 -12 -13 -13 -13 -13
-21 -20 -19 -16 -14 -12 -11 -10 -9 -9 -11 -10 -11 -10 -9 -9 -9 -9 -9 -9 -9 -10 -10 -10 -11 -11 -11 -11 -11 -11 -11 -11 -11 -11 -11 -11 -12 -11 -12 -12 -12 -12 -12 -12 -13 -12 -13 -13 -13
-22 -20 -20 -17 -14 -11 -11 -10 -10 -10 -11 -11 -11 -10 -10 -10 -9 -9 -9 -10 -10 -10 -10 -11 -11 -11 -11 -11 -11 -11 -11 -11 -11 -11 -12 -12 -12 -11 -12 -12 -12 -12 -12 -12 -13 -12 -13 -12 -13
-23 -22 -20 -17 -14 -12 -11 -11 -10 -10 -10 -12 -11 -10 -11 -10 -10 -10 -10 -10 -10 -10 -10 -11 -11 -11 -11 -11 -11 -11 -11 -11 -11 -12 -12 -12 -12 -12 -12 -12 -12 -12 -12 -13 -12 -12 -13 -13 -12
Height
5862 5865 5868 5868 5873 5872 5870 5873 5873 5874 5876 5875 5876 5877 5879 5880 5882 5884 5883 5884 5883 5885 5886 5886 5883 5880 5879 5878 5876 5874 5872 5870 5867 5864 5862 5860 5858 5855 5852 5850 5848 5847 5845 5843 5841 5840 5840 5838 5836
5859 5861 5864 5865 5868 5869 5868 5871 5872 5872 5873 5873 5872 5873 5877 5878 5878 5878 5879 5881 5881 5882 5884 5884 5881 5878 5877 5875 5874 5872 5871 5868 5866 5863 5861 5859 5856 5853 5850 5847 5846 5843 5841 5840 5838 5835 5834 5833 5831
5855 5857 5860 5861 5865 5867 5867 5868 5869 5870 5871 5871 5872 5873 5874 5876 5876 5876 5877 5878 5878 5879 5880 5882 5880 5876 5875 5872 5872 5870 5868 5866 5864 5861 5858 5855 5852 5849 5847 5845 5843 5842 5839 5836 5834 5832 5829 5828 5827
5851 5853 5857 5859 5864 5865 5865 5866 5867 5866 5868 5868 5870 5872 5873 5874 5875 5873 5872 5873 5874 5876 5878 5880 5877 5874 5872 5870 5867 5864 5863 5861 5859 5856 5853 5850 5847 5845 5843 5841 5840 5838 5836 5833 5830 5828 5826 5824 5822
5845 5847 5851 5856 5860 5862 5862 5861 5862 5863 5865 5865 5866 5868 5870 5871 5871 5870 5869 5870 5872 5873 5876 5875 5873 5871 5868 5867 5864 5860 5857 5855 5853 5851 5847 5844 5841 5841 5839 5836 5834 5832 5832 5830 5827 5824 5822 5820 5818
5838 5842 5846 5851 5853 5857 5857 5856 5856 5858 5860 5861 5863 5865 5868 5867 5867 5866 5866 5866 5868 5870 5872 5870 5868 5867 5867 5866 5863 5857 5853 5850 5848 5846 5843 5839 5837 5834 5832 5831 5830 5828 5827 5825 5823 5820 5817 5815 5812
5831 5833 5839 5843 5845 5849 5852 5849 5851 5854 5857 5856 5859 5862 5862 5861 5862 5862 5863 5862 5863 5866 5866 5864 5863 5862 5863 5861 5858 5854 5850 5847 5844 5842 5839 5836 5834 5831 5829 5828 5826 5824 5821 5819 5817 5815 5813 5811 5808
5824 5825 5830 5835 5838 5846 5846 5843 5845 5850 5851 5853 5856 5857 5858 5857 5856 5857 5857 5857 5857 5859 5860 5859 5858 5855 5853 5854 5852 5851 5848 5844 5841 5839 5837 5834 5831 5829 5827 5824 5821 5818 5816 5813 5811 5809 5808 5805 5803
5814 5814 5822 5830 5834 5838 5840 5841 5840 5843 5845 5848 5851 5851 5852 5853 5851 5851 5851 5852 5851 5850 5852 5852 5852 5850 5847 5847 5845 5843 5844 5841 5838 5835 5832 5829 5827 5824 5821 5818 5816 5813 5810 5808 5805 5803 5801 5799 5798
5803 5805 5815 5825 5826 5828 5831 5836 5836 5836 5838 5841 5845 5848 5847 5846 5846 5846 5848 5847 5846 5843 5842 5843 5844 5843 5840 5840 5839 5837 5835 5833 5831 5830 5827 5825 5823 5820 5816 5814 5811 5807 5806 5803 5799 5798 5795 5794 5792
5793 5797 5811 5816 5815 5818 5818 5822 5827 5827 5831 5836 5840 5840 5840 5839 5839 5839 5841 5842 5841 5840 5839 5839 5838 5835 5833 5833 5832 5831 5829 5826 5824 5823 5821 5820 5817 5815 5811 5808 5805 5802 5800 5797 5794 5792 5790 5788 5786
5784 5791 5799 5808 5805 5807 5812 5815 5817 5822 5827 5829 5831 5834 5833 5834 5834 5833 5834 5836 5836 5835 5835 5833 5831 5828 5828 5826 5826 5826 5824 5820 5819 5817 5815 5814 5812 5809 5805 5802 5800 5797 5794 5792 5789 5786 5784 5782 5779
5772 5782 5785 5794 5793 5796 5798 5803 5807 5809 5817 5822 5824 5827 5829 5828 5827 5828 5828 5828 5830 5827 5827 5826 5824 5822 5821 5819 5820 5820 5817 5815 5814 5812 5810 5807 5805 5803 5800 5796 5794 5792 5789 5786 5783 5781 5778 5775 5772
5764 5768 5771 5777 5781 5782 5784 5792 5792 5802 5810 5813 5817 5820 5820 5821 5823 5824 5824 5824 5823 5822 5823 5819 5817 5816 5813 5813 5812 5811 5810 5808 5807 5806 5803 5799 5799 5796 5793 5791 5788 5786 5783 5779 5777 5775 5771 5768 5765
5747 5751 5754 5759 5769 5772 5774 5774 5780 5796 5797 5802 5807 5810 5810 5813 5814 5815 5817 5817 5818 5818 5815 5813 5811 5808 5806 5807 5806 5804 5803 5801 5800 5798 5796 5793 5793 5789 5787 5785 5782 5779 5776 5773 5770 5768 5764 5760 5757
5731 5735 5737 5750 5755 5761 5762 5766 5784 5786 5787 5791 5796 5797 5797 5802 5806 5807 5808 5807 5809 5806 5805 5805 5802 5802 5800 5801 5798 5797 5796 5794 5793 5790 5789 5787 5784 5781 5781 5777 5774 5770 5767 5766 5763 5760 5756 5752 5749
5716 5723 5730 5737 5745 5743 5745 5758 5768 5773 5778 5781 5784 5785 5786 5790 5794 5797 5799 5798 5797 5797 5796 5795 5795 5795 5793 5792 5790 5789 5788 5788 5786 5784 5781 5780 5777 5775 5775 5771 5767 5763 5760 5759 5756 5752 5749 5745 5742
5710 5714 5716 5717 5725 5726 5731 5744 5752 5761 5764 5766 5768 5774 5778 5780 5783 5787 5787 5788 5788 5788 5788 5788 5789 5788 5786 5784 5782 5782 5781 5779 5778 5776 5773 5772 5771 5769 5768 5766 5762 5757 5754 5751 5749 5746 5742 5738 5735
5688 5692 5698 5704 5709 5715 5724 5729 5739 5745 5748 5754 5760 5766 5768 5771 5774 5776 5779 5779 5780 5779 5780 5780 5781 5779 5778 5777 5776 5775 5773 5771 5769 5768 5765 5765 5764 5762 5762 5758 5756 5753 5749 5745 5742 5738 5735 5731 5728
5671 5676 5683 5691 5697 5703 5714 5715 5729 5731 5739 5746 5751 5755 5759 5762 5764 5766 5769 5771 5773 5771 5771 5772 5771 5770 5769 5769 5769 5767 5764 5762 5760 5759 5759 5758 5756 5756 5755 5752 5750 5746 5744 5739 5735 5732 5728 5724 5720
5654 5662 5670 5677 5685 5693 5702 5704 5713 5724 5730 5737 5741 5746 5749 5754 5755 5756 5759 5760 5761 5762 5763 5763 5763 5763 5763 5763 5760 5758 5757 5755 5754 5753 5752 5751 5751 5749 5748 5746 5744 5741 5737 5732 5729 5726 5723 5719 5715
5633 5645 5656 5665 5673 5684 5690 5687 5703 5718 5723 5728 5732 5738 5742 5742 5744 5747 5748 5749 5752 5754 5755 5755 5755 5756 5755 5753 5751 5750 5750 5749 5748 5748 5747 5746 5744 5742 5741 5740 5737 5734 5730 5726 5723 5720 5718 5715 5710
5620 5632 5645 5651 5657 5670 5682 5676 5704 5712 5716 5722 5727 5729 5729 5731 5733 5736 5739 5741 5745 5746 5747 5748 5748 5748 5747 5745 5744 5744 5744 5744 5744 5743 5742 5739 5738 5737 5735 5732 5730 5727 5724 5721 5719 5716 5713 5709 5705
5611 5618 5629 5637 5647 5654 5674 5673 5694 5705 5711 5714 5716 5719 5721 5724 5726 5729 5733 5737 5737 5739 5740 5742 5741 5741 5740 5740 5739 5739 5740 5739 5738 5737 5736 5734 5732 5730 5728 5726 5724 5721 5719 5717 5714 5712 5709 5704 5700
5595 5606 5618 5623 5630 5655 5664 5668 5692 5695 5700 5704 5709 5710 5714 5717 5722 5725 5728 5730 5731 5733 5735 5735 5735 5735 5735 5735 5734 5734 5734 5734 5732 5731 5730 5729 5727 5725 5723 5721 5718 5716 5715 5712 5710 5708 5705 5700 5697
5587 5597 5609 5613 5628 5651 5658 5665 5680 5688 5695 5697 5700 5703 5707 5711 5716 5719 5722 5724 5726 5727 5728 5728 5728 5729 5729 5730 5729 5728 5729 5728 5726 5725 5724 5723 5721 5719 5718 5715 5713 5712 5710 5708 5707 5704 5700 5697 5694
5580 5584 5603 5607 5622 5639 5645 5665 5672 5681 5688 5693 5696 5695 5701 5706 5710 5714 5716 5719 5721 5722 5722 5721 5723 5724 5725 5725 5723 5723 5723 5723 5721 5720 5718 5717 5716 5714 5712 5710 5709 5708 5707 5705 5704 5700 5698 5694 5693
5575 5585 5588 5597 5615 5629 5646 5656 5660 5672 5680 5684 5690 5694 5698 5703 5706 5708 5712 5714 5716 5717 5717 5718 5720 5721 5720 5720 5719 5719 5718 5717 5716 5715 5713 5711 5710 5709 5708 5707 5705 5704 5703 5703 5701 5697 5695 5692 5690
5569 5575 5580 5594 5608 5622 5638 5646 5652 5662 5674 5679 5685 5690 5695 5698 5701 5705 5707 5710 5712 5713 5713 5714 5716 5716 5716 5716 5716 5715 5714 5713 5711 5709 5708 5707 5706 5706 5704 5703 5702 5702 5702 5700 5697 5695 5693 5690 5687
5565 5569 5575 5584 5601 5613 5625 5635 5641 5654 5663 5674 5680 5687 5690 5694 5698 5701 5704 5706 5708 5708 5710 5712 5712 5712 5712 5712 5712 5711 5710 5708 5707 5706 5705 5704 5703 5703 5701 5701 5701 5700 5699 5697 5695 5693 5690 5689 5687
Wind_Speed
23 23 24 24 24 24 27 24 23 21 19 19 17 16 19 17 22 24 22 23 26 25 24 28 21 22 23 22 21 23 25 26 26 26 26 24 24 26 28 27 27 28 29 30 32 31 30 31 31
25 25 25 26 26 26 28 26 26 24 22 21 20 16 17 20 23 26 27 27 29 28 26 27 19 20 22 24 25 25 25 25 26 27 27 26 25 24 26 27 28 28 30 31 33 33 31 29 26
28 27 27 28 27 26 26 27 25 24 23 23 22 20 17 19 26 29 30 34 32 27 22 27 21 18 20 25 28 30 29 27 27 25 27 28 27 26 24 24 25 27 29 29 31 33 31 28 23
31 30 28 28 26 26 27 27 27 27 26 26 26 23 20 22 26 30 35 36 32 32 23 29 24 17 18 25 32 36 34 30 30 31 28 28 27 25 25 25 24 26 27 27 29 30 30 28 24
37 34 34 29 30 26 33 34 33 32 30 31 28 28 29 29 32 33 29 28 26 26 26 27 22 21 20 24 35 34 34 34 32 30 32 31 30 29 27 30 29 29 28 27 28 28 28 26 25
40 39 40 32 34 34 35 37 39 35 34 33 33 33 34 38 33 36 37 33 30 27 28 24 23 21 19 31 31 34 35 38 34 33 33 32 32 32 30 32 33 31 30 27 27 26 26 24 23
42 42 40 39 35 40 40 41 42 39 35 39 43 36 38 42 34 34 35 41 42 33 27 23 25 23 28 33 34 36 37 39 34 33 32 32 32 33 31 33 35 32 30 29 28 25 24 24 22
47 47 43 41 37 39 43 42 43 42 43 45 46 42 40 42 42 42 41 37 40 37 28 24 25 31 38 36 38 35 35 38 33 34 33 31 32 32 33 33 35 34 31 31 29 27 25 24 24
51 54 49 43 40 38 44 47 46 46 48 47 44 39 40 41 44 42 41 41 40 40 33 28 32 34 41 41 43 45 38 29 30 32 32 33 33 32 33 35 35 35 33 31 31 29 27 25 25
55 58 51 44 41 39 43 47 45 48 50 48 43 38 34 33 36 34 39 40 42 39 36 35 39 45 43 43 44 46 42 30 29 31 32 33 32 33 34 36 36 36 35 32 31 29 30 29 25
58 61 52 49 47 45 49 49 50 54 54 47 42 40 35 36 39 38 41 38 40 38 39 40 44 44 46 47 47 47 43 32 32 35 34 33 35 34 36 37 37 36 35 33 32 31 32 34 30
59 62 56 53 52 50 47 49 53 53 50 47 43 43 45 43 42 43 41 44 41 38 38 41 44 45 47 50 49 47 37 31 33 31 31 33 37 36 36 35 36 37 36 35 32 34 36 37 34
64 60 60 59 56 55 52 56 56 59 53 50 48 45 46 44 41 41 41 44 37 35 39 41 47 50 52 53 49 43 35 33 33 32 34 37 38 37 34 33 36 36 38 37 34 35 37 38 37
68 65 67 64 61 59 59 55 55 58 50 48 47 47 50 53 42 41 42 41 38 40 41 45 49 49 53 49 45 34 31 32 32 32 33 36 36 36 34 34 34 36 41 41 36 37 39 40 38
73 78 72 68 66 67 64 67 64 56 54 54 51 52 53 42 44 44 40 45 41 42 47 47 50 50 52 47 38 35 32 32 33 29 29 36 34 36 33 33 34 36 39 38 33 38 41 40 37
68 76 83 76 70 67 69 74 65 60 58 54 49 49 52 44 41 40 37 39 39 44 45 47 53 49 51 44 42 39 33 32 32 28 30 35 35 37 32 33 34 37 40 31 34 39 40 37 37
69 70 70 75 77 76 75 66 60 60 61 57 55 55 51 43 44 42 43 42 46 47 48 52 49 47 48 41 43 40 36 33 30 27 33 35 34 35 35 35 37 41 31 32 37 38 37 36 36
65 65 70 71 71 83 84 68 70 62 60 60 60 51 46 46 47 44 46 48 50 50 48 47 44 45 44 44 43 42 38 33 28 29 34 36 34 34 38 37 39 43 33 37 36 36 34 33 33
67 68 66 66 66 64 69 72 66 64 62 55 51 47 45 43 44 47 47 48 46 46 42 42 42 42 43 44 44 44 34 31 30 34 38 34 31 36 36 37 42 35 37 33 33 32 31 32 31
69 68 67 64 63 63 61 65 61 62 58 50 44 44 43 42 40 43 46 42 40 40 41 42 42 43 45 45 44 33 32 33 35 36 30 29 31 33 37 34 38 31 30 29 30 29 29 28 28
73 70 67 66 63 61 57 61 58 55 54 49 46 43 41 40 42 41 38 38 38 40 42 42 41 44 38 40 36 33 29 29 27 26 26 29 31 34 30 34 32 28 28 28 28 27 25 24 24
76 73 69 66 63 59 56 63 54 47 45 42 40 38 35 38 39 33 37 38 39 40 39 37 41 34 36 37 34 25 22 22 22 23 25 30 32 28 30 29 27 27 26 26 25 24 21 24 26
75 73 69 67 65 60 56 62 48 40 41 38 33 33 38 35 34 33 37 37 35 33 35 37 33 34 34 32 24 21 21 22 22 24 27 29 29 27 26 25 26 26 24 22 23 20 21 26 23
68 70 67 67 64 63 54 56 42 33 34 34 34 32 32 31 32 33 31 30 31 35 34 33 33 32 30 23 21 21 21 22 25 26 27 28 27 25 24 24 25 23 20 19 18 17 20 20 18
62 67 61 63 66 55 52 52 25 27 31 31 31 33 32 31 27 24 25 28 29 31 30 31 30 26 22 20 20 19 22 24 25 26 24 24 22 21 21 24 22 18 16 15 14 16 17 18 15
54 59 65 68 60 51 49 45 30 30 18 11 27 31 28 25 23 22 24 25 25 24 24 23 21 20 18 18 19 19 20 23 24 22 19 19 18 19 21 20 18 14 14 13 13 15 14 15 16
44 50 51 54 59 54 53 40 36 34 32 28 19 22 25 23 22 21 24 21 19 17 18 17 16 16 17 19 16 18 21 22 19 15 16 17 20 18 17 15 14 14 14 12 13 14 14 11 13
34 41 46 52 52 55 49 44 44 36 26 26 23 17 20 19 23 24 17 15 13 13 13 11 15 16 17 16 17 18 18 15 14 15 18 19 14 13 13 12 13 14 12 11 14 12 14 12 5
27 40 45 48 51 50 49 51 49 43 38 24 21 18 17 21 19 17 13 12 13 14 11 12 15 14 15 15 15 13 12 13 14 16 16 12 11 10 10 11 12 12 10 10 11 10 11 13 9
29 37 43 50 52 52 52 53 48 46 41 32 28 18 20 19 15 12 12 12 15 11 10 10 10 12 14 13 10 10 12 15 14 14 13 12 10 8 9 10 10 9 8 9 11 10 10 11 5
Wind_Direction
217 214 213 209 212 208 212 214 213 220 224 240 257 267 278 292 301 293 299 302 302 310 312 321 337 350 357 355 348 344 343 341 339 335 330 324 324 322 322 318 313 310 310 309 308 308 308 304 295
217 216 215 212 211 209 220 226 225 231 236 248 253 257 282 299 299 294 294 298 296 295 295 316 325 341 358 1 358 343 336 336 334 330 323 319 315 314 316 311 307 308 310 309 309 311 309 304 294
220 217 214 212 208 213 221 227 229 234 242 251 261 272 279 287 291 291 287 285 285 288 283 305 315 323 342 347 340 342 341 332 328 326 319 316 313 309 307 307 301 303 307 313 314 312 309 304 298
221 216 217 216 210 213 222 230 232 239 246 251 253 263 273 278 285 285 277 277 275 270 277 304 305 311 330 337 333 332 334 336 330 323 321 315 310 309 306 310 304 305 311 315 314 310 305 299 296
223 218 222 221 211 211 230 232 233 235 239 244 250 257 265 269 280 275 280 277 285 271 281 305 312 320 313 322 328 331 331 333 330 325 321 317 315 316 315 317 313 311 312 315 314 309 303 297 294
229 228 229 222 214 220 223 229 234 233 237 241 249 259 273 278 274 272 275 274 270 274 296 305 311 300 301 319 320 329 332 334 326 320 318 318 320 316 314 318 316 312 311 316 314 308 301 293 291
230 229 226 221 214 214 223 229 233 235 237 243 251 257 267 270 268 268 269 269 273 275 301 302 302 294 304 314 319 328 329 326 318 315 313 315 314 310 307 313 315 311 309 314 314 307 304 298 293
231 232 227 223 217 216 226 230 233 235 241 247 254 262 269 273 273 277 283 281 290 295 293 288 292 298 304 315 317 319 323 313 310 307 303 307 312 310 307 307 314 313 310 312 313 306 304 301 299
232 234 230 226 228 217 223 232 239 245 246 249 258 260 270 271 271 280 285 293 294 294 289 289 298 305 305 311 313 313 318 302 295 296 295 298 306 310 307 307 312 311 306 308 310 309 307 303 298
236 238 236 230 227 222 219 226 238 242 246 252 257 271 267 275 277 283 288 290 293 291 295 305 307 306 305 308 309 313 318 301 288 289 287 289 301 307 307 307 308 306 303 304 308 310 310 307 301
234 237 240 234 230 226 227 222 224 236 243 250 257 259 269 282 289 284 286 280 288 287 290 302 302 300 302 304 304 309 311 296 292 290 284 292 300 304 304 301 302 301 299 301 307 310 312 314 308
246 239 240 237 235 233 233 243 242 241 249 254 259 257 267 284 287 287 282 277 286 283 290 296 296 296 297 297 299 307 302 287 294 290 284 293 295 301 295 296 297 298 295 299 304 310 314 315 310
246 244 242 239 235 232 233 239 242 246 247 247 256 264 266 277 282 284 279 282 283 284 287 292 295 292 291 291 300 299 286 282 285 286 286 289 291 298 291 290 293 296 298 298 303 305 308 310 308
241 243 246 244 237 238 238 237 245 246 249 254 259 264 267 271 278 278 274 270 274 274 279 281 285 288 287 294 295 289 282 276 277 284 288 291 292 295 286 289 291 292 293 295 302 304 308 308 307
242 240 242 242 243 247 247 252 248 259 262 262 263 265 267 269 272 269 271 260 267 267 271 279 283 283 285 286 287 287 288 278 275 284 297 294 296 291 283 288 291 290 288 292 303 305 306 306 306
247 243 239 241 245 247 249 249 251 255 260 266 262 264 261 264 263 261 259 261 265 267 271 276 277 282 281 287 282 282 286 286 281 283 295 292 291 288 288 288 288 286 283 302 300 303 304 303 305
247 247 249 246 244 247 247 252 250 255 260 259 258 261 264 261 255 251 251 257 261 266 269 269 273 275 278 281 281 283 287 291 290 288 289 287 286 286 290 293 288 284 292 301 303 302 300 305 301
252 251 248 248 247 246 249 253 256 257 257 257 254 255 259 258 256 252 253 256 262 265 268 271 273 271 277 276 277 281 286 290 289 289 285 279 280 281 287 289 292 296 302 302 298 297 304 302 300
245 246 246 246 248 248 250 251 251 256 255 258 254 260 258 260 258 254 254 258 261 263 266 267 267 270 271 273 278 279 287 286 286 288 281 281 277 275 285 293 299 295 297 293 295 303 302 303 302
240 241 242 244 245 249 247 251 252 254 255 256 254 253 256 258 257 254 253 257 259 258 257 260 262 265 266 273 277 284 287 286 284 276 276 274 271 280 287 288 295 295 291 295 301 301 302 302 303
236 238 239 240 243 245 249 249 250 251 253 256 256 256 257 259 257 256 254 251 247 248 253 258 265 265 274 277 281 284 286 287 285 271 266 270 275 287 287 287 292 292 294 298 300 300 301 300 303
230 232 236 238 239 242 246 249 245 249 253 253 253 257 256 254 257 252 244 243 242 246 254 264 264 272 276 281 285 287 285 286 276 270 271 274 280 285 286 287 289 294 297 300 299 299 300 298 301
226 229 231 235 237 237 239 248 239 246 252 254 257 251 250 252 254 243 238 242 247 256 258 261 264 271 280 287 290 280 279 277 273 280 280 281 283 285 290 290 294 296 297 295 298 299 301 299 301
226 225 227 231 233 234 235 246 247 245 243 243 245 245 250 251 246 242 246 251 254 250 255 258 266 279 288 285 271 267 273 273 280 284 279 280 285 289 287 292 294 293 293 297 294 300 312 313 299
224 224 224 229 230 230 233 239 244 239 236 235 237 243 245 249 243 244 246 247 249 252 255 266 276 281 272 263 265 266 267 278 283 279 282 282 282 282 290 292 290 289 294 289 295 308 313 313 311
221 222 226 228 228 225 229 232 229 229 225 235 233 241 239 242 243 243 238 246 251 254 266 268 268 257 255 259 262 267 279 283 279 283 282 284 286 291 290 287 284 289 284 283 296 312 329 323 319
220 217 220 226 227 221 224 223 224 229 232 228 223 219 229 229 222 228 235 242 256 263 258 245 243 246 250 262 273 281 280 275 279 278 283 289 292 289 282 281 285 284 281 283 301 304 313 327 313
216 217 211 217 220 221 219 219 221 221 221 207 219 209 215 216 219 230 234 244 245 243 238 238 245 243 258 271 278 272 274 277 278 284 292 291 283 273 276 285 280 275 284 298 305 286 317 326 320
216 215 215 214 213 215 215 219 222 224 212 215 212 211 212 217 226 238 235 244 236 235 235 239 244 254 265 269 264 269 276 280 286 294 289 277 268 264 285 281 273 271 279 302 320 300 328 337 323
231 219 215 209 209 208 211 216 223 219 218 198 202 196 210 221 236 242 234 227 234 232 236 239 246 260 268 263 260 274 280 280 282 281 278 264 251 263 284 264 259 274 298 309 314 299 304 306 336